Showing default

SECOR 9 (EGRS 9), 2861

Orbit data source: Space-Track

SECOR 9 (EGRS 9), 2861 is an American payload satellite in LEO that was launched on Thu, 29 Jun 1967 UTC via a THOR BURNER 2 launch vehicle from the Air Force Western Test Range (AFWTR). Payloads include a variety of satellites, spacecraft, and rockets equipped with specific instruments for various scientific and technological missions. These include communications satellites like Starlink; space stations such as the ISS; scientific satellites like the Hubble; Earth observation satellites from companies like Planet Labs, Umbra, and HawkEye 360; GPS; miniature CubeSats for education and research; and military/defense satellites.

Loading next visibility...
SECOR 9 (EGRS 9) details
Identifier
2861, 1967-065A
Orbit
LEO
Last TLE update1 day ago
Origin
Flag of USACE/GIMR (US)
ManufacturerITT
MissionDefense Geodetic
Bus & MotorSECOR, Unknown motor
Mass18 kg wet, 18 kg dry
Launch date (UTC)
1967-06-29 (57 years ago)
Launch vehicle
THOR BURNER 2
Launch site
Air Force Western Test Range (AFWTR)
Object type
Payload
Rocket body
Debris
Shape & HBRBox, 0.4 m
Radar Cross Section0.240 m², Medium (>0.1 m² and < 1m²)

Expand to show TLE details & history

TLE from 1 day ago
0 SECOR 9 (EGRS 9)
1 02861U 67065A   24355.30353277  .00000013  00000-0  70604-2 0  9993
2 02861  90.0167 314.2055 0072561 258.5769 100.6910  8.36660058755562
Epoch: 2024-12-20T07:17Z
Definitive object data (Epoch: 2024-12-20T07:17:05.231Z)
Latitude-0.00003°
Longitude115.56273°
Altitude3,887.824 km
Speed6.227 km/s
True Right ascension20h 56m 49s
True Declination0° 00' 00"
Sunlit
Object was in daylight at TLE epoch
Visualization TLE readout
Latitude-74.90896°
Longitude-64.49826°
Altitude3,824.35 km
Speed6.275 km/s
Apparent Right ascension03h 14m 14s
Apparent Declination-72° 43' 27"
Sunlit
Object is in daylight
Visualization observer readout
Local Sidereal Time13:03:03
Azimuth195.702° SSW
Elevation-53.531°
Doppler factor1
Orbital elements
Apogee altitude3,943.572 km
Perigee altitude3,794.861 km
Semi-major axis10,247.353 km
Eccentricity0.0072561
Inclination90.0167°
RAAN314.2055°
Arg. of periapsis258.5769°
True anomaly101.50665°
Mean anomaly100.691°
Eccentric anomaly101.09897°
Mean motion2.09231 °/min
BSTAR0.0070604
Orbital period172.06 mins
Loading maneuver chart data...
Loading historical data...
Loading historical data...
Loading historical data...
Loading historical data...
Loading historical data...
Loading historical data...
Loading historical data...

SECOR 9 (EGRS 9) Visibility forecast

Observer location: undefined°, undefined

Span
Click to sort rows by Start time (UTC) header in descending order
Start Az.
Max El. time (UTC)
Max El. Az.
Max El.
End time (UTC)
End Az.
15 mins2024-12-21 18:03:59.586Z65.662° ENE2024-12-21 18:11:59.586Z40.579° NE13.346°2024-12-21 18:18:59.586Z18.832° NNE
36 mins2024-12-21 20:37:59.586Z148.519° SSE2024-12-21 20:54:59.586Z79.595° E41.399°2024-12-21 21:13:59.586Z2.554° NNE
35 mins2024-12-21 23:30:59.586Z220.586° SW2024-12-21 23:46:59.586Z281.279° WNW32.802°2024-12-22 00:05:59.586Z351.682° N
17 mins2024-12-22 06:04:59.586Z25.657° NE2024-12-22 06:13:59.586Z54.374° ENE13.827°2024-12-22 06:21:59.586Z80.016° E
38 mins2024-12-22 08:52:59.586Z4.629° NNE2024-12-22 09:11:59.586Z92.513° ESE43.248°2024-12-22 09:30:59.586Z172.102° S
31 mins2024-12-22 11:44:59.586Z351.858° N2024-12-22 11:59:59.586Z299.631° NW30.023°2024-12-22 12:15:59.586Z241.598° WSW
|